#timestamp,LO_Frequency,Hit,StdDev 
1555272015.9,286047004.3,N
1555272035.7,286047002.3,N
1555272055.6,286047002.4,N
1555272075.4,286047002.7,N
1555272095.2,286047000.2,N
1555272115.1,286046999.0,N
1555272116.0,286046999.0,N
1555272135.8,286046999.3,N
1555272155.6,286046998.9,N
1555272175.5,286046998.2,N
1555272195.3,286046998.4,N
1555272215.2,286047001.2,N
1555272235.9,286046998.7,N
1555272255.7,286046998.8,N
1555272275.6,286047001.2,N
1555272295.4,286047000.6,N
1555272315.2,286047001.1,N
1555272335.1,286046999.4,N
1555272336.0,286046999.4,N
1555272355.8,286046999.3,N
1555272375.7,286046999.4,N
1555272395.5,286046998.5,N
1555272415.3,286046998.5,N
1555272435.2,286046998.7,N
1555272455.0,286047000.8,N
1555272455.9,286047000.8,N
1555272475.8,286046998.3,N
1555272495.6,286046996.6,N
1555272515.4,286046997.5,N
1555272535.3,286046997.5,N
1555272555.1,286046995.0,N
1555272575.8,286046996.7,N
1555272595.7,286046997.1,N
1555272615.5,286046997.3,N
1555272635.4,286046999.6,N
1555272655.2,286046999.1,N
1555272675.0,286046997.1,N
1555272675.9,286046997.1,N
1555272695.8,286046996.6,N
1555272715.6,286046996.7,N
1555272735.4,286046997.5,N
1555272755.3,286046997.8,N
1555272775.1,286046997.1,N
1555272795.9,286046997.1,N
1555272815.7,286046996.5,N
1555272835.5,286046996.5,N
1555272855.4,286046999.2,N
1555272875.2,286046999.4,N
1555272895.0,286046999.0,N
1555272895.9,286046999.0,N
1555272915.8,286046998.8,N
1555272935.6,286046999.4,N
1555272955.5,286046999.4,N
1555272975.3,286046999.1,N
1555272995.1,286046998.6,N
1555273015.9,286046998.4,N
1555273035.7,286046998.9,N
1555273055.5,286047001.0,N
1555273075.4,286046999.4,N
1555273095.2,286046996.7,N
1555273115.1,286046996.8,N
1555273116.0,286046996.8,N
1555273135.8,286046999.5,N
1555273155.6,286046997.4,N
1555273175.5,286046996.8,N
1555273195.3,286046997.2,N
1555273215.1,286046996.5,N
1555273235.9,286046996.6,N
1555273255.7,286046997.3,N
1555273275.6,286046997.2,N
1555273295.4,286046997.5,N
1555273315.2,286046996.8,N
1555273335.1,286046997.5,N
1555273336.0,286046997.5,N
1555273355.8,286046998.0,N
1555273375.6,286046997.5,N
1555273395.5,286046998.0,N
1555273415.3,286046998.0,N
1555273435.2,286046995.1,Y
1555273455.9,286046997.9,P
1555273475.7,286046999.5,P
1555273495.6,286046999.1,N
1555273515.4,286046998.4,N
1555273535.2,286046998.3,N
1555273555.1,286046998.7,N
1555273556.0,286046998.7,N
1555273575.8,286046998.3,Y
1555273595.7,286047000.6,P
1555273615.5,286047000.4,N
1555273635.3,286047000.7,N
1555273655.2,286047001.0,N
1555273675.0,286046999.8,N
1555273675.9,286046999.8,N
1555273695.7,286047001.0,N
1555273715.6,286047000.4,N
1555273735.4,286046999.8,N
1555273755.3,286047002.5,Y
1555273775.1,286047000.2,P
1555273795.8,286047000.9,P
1555273815.7,286047000.4,N
1555273835.5,286047002.4,Y
1555273855.4,286047001.2,P
1555273875.2,286047000.4,N
1555273895.0,286047001.0,N
1555273895.9,286047001.0,N
1555273915.8,286047000.5,N
1555273935.6,286047000.4,N
1555273955.5,286046998.1,Y
1555273975.3,286046998.4,P
1555273995.1,286046999.4,N
1555274015.9,286046999.5,N
1555274035.7,286046997.4,Y
1555274055.5,286046996.5,P
1555274075.4,286047000.8,N
1555274095.2,286047000.0,N
1555274115.1,286047000.4,N
1555274116.0,286047000.4,N
1555274135.8,286047001.1,N
1555274155.6,286047002.4,N
1555274175.5,286047000.0,N
1555274195.3,286046999.7,N
1555274215.2,286047002.5,N
1555274235.9,286047002.6,N
1555274255.7,286047004.4,N
1555274275.6,286047001.6,N
1555274295.4,286047003.6,N
1555274315.2,286047004.3,N
1555274335.1,286047002.7,N
1555274336.0,286047002.7,N
1555274355.8,286047002.7,N
1555274375.7,286047002.8,N
1555274395.5,286047000.5,N
1555274415.3,286047000.5,N
1555274435.2,286047000.0,N
1555274455.0,286046999.8,N
1555274455.9,286046999.8,N
1555274475.7,286046999.7,N
1555274495.6,286047002.0,N
1555274515.4,286047002.6,N
1555274535.3,286047002.8,N
1555274555.1,286047002.3,N
1555274575.8,286047002.0,N
1555274595.7,286047003.7,N
1555274615.5,286047003.2,N
1555274635.4,286047002.9,N
1555274655.2,286047005.5,Y
1555274675.0,286047002.5,P
1555274675.9,286047002.5,P
1555274695.8,286047002.6,P
1555274715.6,286047000.3,N
1555274735.5,286047000.1,N
1555274755.3,286046999.8,N
1555274775.1,286046999.7,N
1555274795.9,286047000.9,N
1555274815.7,286046999.9,N
1555274835.5,286047001.9,N
1555274855.4,286046999.7,N
1555274875.2,286047000.5,N
1555274895.1,286047000.3,N
1555274896.0,286047000.3,N
1555274915.8,286047002.3,N
1555274935.6,286047000.0,N
1555274955.5,286047002.6,N
1555274975.3,286047000.0,N
1555274995.2,286047002.8,N
1555275015.9,286047000.9,N
1555275035.7,286047002.4,N
1555275055.6,286047001.8,N
1555275075.4,286047003.1,N
1555275095.2,286047004.4,Y
1555275115.1,286047002.2,P
1555275116.0,286047002.2,P
1555275135.8,286046999.7,N
1555275155.7,286047002.3,N
1555275175.5,286047002.0,N
1555275195.3,286047004.3,Y
1555275215.2,286047001.1,P
1555275235.0,286047000.2,N
1555275235.9,286047000.2,N
1555275255.8,286046998.2,Y
1555275275.6,286046998.3,P
1555275295.4,286046998.3,N
1555275315.3,286046998.9,N
1555275335.1,286047000.5,N
1555275355.9,286047000.7,N
1555275375.7,286047002.0,N
1555275395.5,286047002.1,N
1555275415.4,286046999.9,N
1555275435.2,286046999.3,N
1555275455.0,286046996.7,N
1555275455.9,286046996.7,N
1555275475.8,286046999.2,N
1555275495.6,286046999.4,N
1555275515.4,286046999.3,N
1555275535.3,286046999.1,N
1555275555.1,286046999.1,N
1555275575.9,286046997.1,N
1555275595.7,286046997.9,N
